Location: �chenoz-la-M�line
(47.6009°N, 6.1354°E)
Time: 13:05:04
(UTC+00:00)

BREEZE-M DEB (TANK) - Pass Details

Date: 27 January 2021
Orbit: 327 x 16272 km, 49.5° (Epoch: 03 March)

Event Time Altitude Azimuth Distance (km) Brightness Sun altitude
Exits shadow 03:55:20 73° 273° (W) 1,540 4.2 -32.4°
Maximum altitude 03:56:14 84° 202° (SSW) 1,346 4.0 -32.2°
Drops below altitude 10° 04:00:48 10° 114° (ESE) 2,200 6.0 -31.5°
Sets 04:02:10 0° 114° (ESE) 2,795 6.7 -31.3°
